This is the latest recevied weather packets stored in our database for station/object KK6LVQ-13. If no packets are shown the sender has not sent any weather packets the latest 10 day(s).
| Time | Temp. | Humidity | Pressure | Rain* | Wind** | Luminosity | Snow |
|---|---|---|---|---|---|---|---|
| 1778272041 | 18.89° C | 72% | 1023.1 hPa | 0 mm | - | 805 W/m² | - |
| 1778271739 | 18.33° C | 74% | 1023 hPa | 0 mm | - | 807 W/m² | - |
| 1778271436 | 18.33° C | 74% | 1023.3 hPa | 0 mm | - | 807 W/m² | - |
| 1778271132 | 18.33° C | 74% | 1023.1 hPa | 0 mm | - | 809 W/m² | - |
| 1778270829 | 18.33° C | 74% | 1023.3 hPa | 0 mm | - | 808 W/m² | - |
| 1778270525 | 18.33° C | 74% | 1023.1 hPa | 0 mm | - | 808 W/m² | - |
| 1778270222 | 18.33° C | 73% | 1023.3 hPa | 0 mm | - | 806 W/m² | - |
| 1778269918 | 18.33° C | 73% | 1023.4 hPa | 0 mm | - | 805 W/m² | - |
| 1778269615 | 18.33° C | 73% | 1023.2 hPa | 0 mm | - | 803 W/m² | - |
| 1778269312 | 18.33° C | 74% | 1023.4 hPa | 0 mm | - | 800 W/m² | - |
| 1778269009 | 18.33° C | 74% | 1023.4 hPa | 0 mm | - | 798 W/m² | - |
| 1778268705 | 17.78° C | 74% | 1023.4 hPa | 0 mm | - | 795 W/m² | - |
| 1778268402 | 17.78° C | 73% | 1023.6 hPa | 0 mm | - | 791 W/m² | - |
| 1778268094 | 18.33° C | 73% | 1023.5 hPa | 0 mm | - | 786 W/m² | - |
| 1778267790 | 17.78° C | 75% | 1023.6 hPa | 0 mm | - | 781 W/m² | - |
| 1778267486 | 17.78° C | 75% | 1023.9 hPa | 0 mm | - | 781 W/m² | - |
| 1778267179 | 17.78° C | 75% | 1023.8 hPa | 0 mm | - | 773 W/m² | - |
| 1778266875 | 17.22° C | 75% | 1023.9 hPa | 0 mm | - | 768 W/m² | - |
| 1778266572 | 17.78° C | 74% | 1024 hPa | 0 mm | - | 764 W/m² | - |
| 1778266270 | 17.22° C | 75% | 1023.9 hPa | 0 mm | - | 758 W/m² | - |
| 1778265967 | 17.22° C | 75% | 1023.9 hPa | 0 mm | - | 751 W/m² | - |
| 1778265664 | 17.22° C | 75% | 1023.7 hPa | 0 mm | - | 743 W/m² | - |
| 1778265360 | 17.22° C | 74% | 1024 hPa | 0 mm | - | 737 W/m² | - |
| 1778265056 | 16.67° C | 74% | 1024 hPa | 0 mm | - | 731 W/m² | - |
| 1778264753 | 16.67° C | 74% | 1024 hPa | 0 mm | - | 723 W/m² | - |
* Rain latest hour (hover to see other rain measurements)
** Current wind speed in m/s (hover to see current wind gust speed)